Vertical_Velocity
-1 -1 -1 -1 -1 -1 -1 -1 -0 -0 -0 0 0 0 0 0 0 -0 -0 -0 -0 -0 -1 -1 -1 -1 -1 -1 -1 -1 -1 -1 -1 -1 -1 -1 -1 -1 -2 -2 -2 -1 -0 0 -0 -0 -0 -0 -0 -0 -1 -1 -2 -2 -2 -2 -1 -1 -1 -0 -0 -0 -1 -1 -1 -1 -1 -1 -1 -1 -1 -1 -1 -1 -1 -1 -1 -1 -1 -1 -1 -0 -0 -0 -1 -1 -0 -0 -0 -0 -0 -0 -0 -1 -1 -1 -1 -1 -1 -0 0 0 0
-0 -0 0 -0 -0 -0 -0 0 0 1 1 1 1 1 0 0 -0 -0 -1 -1 -1 -1 -1 -1 -1 -1 -0 -0 -1 -1 -1 -1 -1 -1 -1 -0 -0 -1 -1 -2 -2 -1 -0 0 0 0 -0 -0 -0 -0 -0 -0 -1 -1 -2 -2 -2 -2 -1 -1 -1 -1 -1 -1 -1 -1 -1 -1 -1 -1 -1 -1 -1 -1 -1 -1 -1 -1 -1 -1 -1 -1 -0 -1 -0 -0 -0 -0 -0 -0 -0 -0 -0 -0 -0 -1 -1 -1 -1 -1 -0 -0 -0
-0 -0 0 0 0 1 1 1 1 1 1 1 0 -0 -0 -0 -0 -1 -1 -1 -1 -1 -1 -1 -0 -0 -0 -0 -0 -0 -0 -1 -1 -1 -1 -0 -0 -1 -1 -2 -2 -1 -0 0 1 1 0 -0 -1 -1 -0 -0 -0 -1 -1 -1 -1 -1 -1 -1 -1 -1 -1 -1 -1 -1 -1 -1 -1 -1 -1 -1 -1 -1 -1 -1 -1 -1 -1 -1 -1 -0 -0 -1 -0 -0 -0 -0 -0 -0 -0 -0 -0 -0 -1 -1 -1 -1 -1 -1 -1 -0 -0
-0 0 0 0 0 0 0 0 0 -0 -0 -0 -1 -1 -1 -1 -1 -1 -1 -1 -1 -1 -1 -0 -0 -0 -0 -0 -0 -0 -0 -0 -1 -1 -1 -0 -0 -0 -1 -1 -2 -1 -1 0 1 1 1 -0 -1 -1 -0 -0 -0 -1 -1 -1 -1 -1 -1 -1 -1 -1 -1 -1 -1 -1 -1 -1 -0 -1 -1 -1 -1 -1 -1 -1 -1 -1 -1 -1 -1 -0 -0 -1 -0 -0 -0 -0 -0 -0 -0 -0 -0 -0 -0 -0 -1 -1 -1 -1 -1 -1 -1
1 1 0 0 -0 -1 -1 -1 -1 -1 -1 -1 -1 -1 -1 -1 -1 -1 -1 -1 -1 -0 -0 -0 -0 -0 -0 -0 -0 -0 -0 -0 -0 -0 -0 -0 -0 -0 -0 -1 -2 -2 -1 -0 1 1 1 0 -0 -1 -1 -1 -1 -1 -1 -1 -1 -1 -1 -1 -1 -1 -0 -1 -1 -1 -1 -0 -0 -0 -0 -0 -1 -1 -1 -1 -1 -1 -0 -1 -1 -0 -1 -1 -0 -0 0 0 0 0 -0 -0 -0 -0 -0 -0 -0 -0 -0 -0 -1 -1 -1
0 -0 -0 -1 -1 -1 -2 -2 -2 -2 -2 -2 -2 -1 -1 -1 -1 -1 -1 -1 -0 -0 -1 -0 -0 -0 0 0 -0 -0 -0 -0 -0 -0 0 0 0 0 -0 -1 -1 -2 -1 -0 0 1 1 1 -0 -1 -1 -1 -1 -1 -1 -1 -1 -1 -0 -0 -0 -0 -0 -1 -1 -1 -1 -0 -0 -0 -0 -0 -0 -1 -1 -1 -1 -0 -0 -0 -0 -1 -0 -0 -0 -0 0 0 0 0 -0 -0 -0 -0 -0 -0 -0 -0 -0 -0 -1 -1 -0
-1 -1 -2 -2 -2 -2 -2 -2 -2 -2 -2 -2 -2 -1 -1 -1 -1 -1 -1 -0 -0 -0 -0 -0 -0 -0 0 0 0 0 0 0 0 0 0 1 1 0 0 -0 -1 -2 -2 -1 -0 1 1 1 0 -0 -1 -1 -1 -1 -1 -1 -1 -0 -0 -0 -0 -0 -0 -0 -1 -1 -0 -0 -0 -0 -0 -0 -0 -0 -0 -1 -0 -0 -0 -0 -0 -0 -0 -1 -0 -0 0 0 0 0 -0 -0 -0 0 0 0 0 0 -0 -0 -1 -1 -1
-2 -2 -2 -2 -2 -2 -2 -2 -2 -2 -2 -1 -1 -1 -1 -1 -1 -1 -0 -0 -0 -0 -0 -0 -0 -0 0 0 0 0 0 1 1 1 1 1 1 0 0 -0 -1 -1 -2 -1 -0 0 1 1 0 -0 -0 -1 -1 -1 -1 -1 -1 -1 -1 -0 -0 -0 -0 -0 -1 -0 -0 -0 -0 -0 -0 -0 -0 -0 -0 -0 -0 -1 -0 -0 -0 -0 -0 -0 -0 -0 -0 0 0 0 -0 -0 -0 0 0 0 0 0 0 -0 -1 -1 -1
-3 -3 -2 -2 -2 -1 -1 -1 -1 -1 -1 -1 -1 -1 -1 -1 -1 -0 -0 -0 -0 -0 0 0 0 0 -0 0 0 0 0 0 0 0 0 0 0 0 0 -0 -1 -1 -2 -2 -1 0 1 1 1 0 -0 -1 -1 -1 -1 -1 -1 -1 -1 -1 -1 -1 -0 -1 -1 -1 -0 -0 -0 -0 -0 -0 -0 -0 -0 -0 -0 -1 -1 -1 -1 -0 -0 -0 -0 -0 -0 -0 -0 0 -0 -0 -0 -0 -1 -1 -0 0 1 0 -0 -1 -1
-3 -3 -3 -2 -2 -2 -1 -1 -1 -1 -1 -1 -0 -0 -0 -0 -0 -0 -0 0 0 0 0 0 0 0 0 0 0 0 0 0 0 0 0 0 0 0 -0 -0 -0 -1 -2 -2 -1 -0 1 1 1 0 -0 -0 -1 -1 -0 -0 -0 -1 -1 -1 -1 -1 -1 -1 -1 -0 -0 -0 -0 -0 -0 -0 -0 -0 -0 -0 -0 -1 -1 -1 -1 -0 -0 -1 -1 -0 -0 -1 -0 -0 0 -0 -0 -1 -1 -2 -1 -0 0 0 -0 -0 -0
-2 -2 -2 -2 -2 -2 -1 -1 -1 -0 -0 0 0 0 0 0 0 0 0 0 0 0 0 0 0 0 0 0 0 0 0 0 0 0 0 0 0 0 0 0 -0 -0 -1 -2 -2 -1 1 1 1 1 0 -0 -0 -0 -0 -0 -0 -0 -0 -1 -1 -1 -1 -1 -1 -0 -0 -0 -0 -0 -0 -0 -0 -0 -0 -0 -0 -1 -1 -1 -1 -1 -0 -1 -1 -0 -0 -1 -0 -0 -0 0 -0 -1 -1 -1 -1 -1 -0 0 -0 -0 -1
-1 -1 -1 -1 -1 -1 -1 -1 -1 -1 -0 0 0 0 1 1 1 1 1 1 1 1 0 0 0 0 0 0 0 0 1 1 0 0 0 0 0 0 1 1 1 1 0 -1 -1 -1 0 1 1 1 0 0 -0 -0 -0 -0 0 0 0 -0 -1 -1 -0 -1 -1 -0 -0 -0 -0 -0 -0 -0 -0 -0 -1 -1 -1 -1 -1 -1 -1 -1 -1 -1 -1 -1 -0 -0 -0 -1 -0 0 0 -0 -1 -1 -1 -1 -0 0 -0 -0 -0
-0 0 0 0 -0 -0 -0 -1 -1 -1 -1 -0 -0 0 0 1 1 1 1 1 1 1 0 0 0 0 0 0 0 0 0 0 0 0 0 0 0 0 0 1 1 1 1 0 -0 -0 1 2 2 1 0 0 0 0 0 0 0 0 1 0 -0 -1 -1 -1 -1 -1 -0 0 0 -0 -0 -0 -0 -0 -0 -1 -1 -1 -1 -1 -1 -1 -1 -1 -1 -1 -0 -0 -0 -1 -1 -0 0 0 0 -0 -1 -1 -0 0 0 0 -0
0 0 0 0 0 0 0 -0 -0 -0 -0 -0 -0 -0 0 0 1 1 1 1 1 1 0 0 0 0 0 0 0 0 0 0 0 0 -0 -0 -0 -0 -0 0 0 0 1 1 0 0 1 2 3 2 1 1 1 1 0 0 0 0 1 1 1 -0 -1 -1 -1 -1 -0 0 1 1 0 0 0 -0 -0 -1 -1 -1 -1 -1 -1 -1 -1 -1 -1 -1 -1 -1 -0 -1 -1 -1 -0 0 0 -0 -0 -0 -0 -0 0 0 -0
-0 -0 -0 -0 -0 0 0 0 0 0 0 -0 -0 -0 -0 0 0 1 0 0 0 0 0 0 0 0 0 0 0 0 0 0 0 0 0 -0 -0 -0 -0 -0 -0 -0 -0 -0 -1 -0 -0 1 2 3 2 1 1 1 1 0 -0 -0 0 0 0 0 -0 -1 -1 -1 -1 -0 0 1 1 1 0 0 -0 -0 -1 -1 -1 -1 -1 -1 -1 -1 -1 -1 -1 -1 -1 -1 -0 -0 -0 0 -0 -0 -0 -0 -0 -0 -0 0 0
-0 -0 -0 -0 -0 -0 0 0 0 0 0 0 0 -0 -0 -0 0 0 0 0 0 0 0 1 1 1 0 0 0 0 0 0 0 0 0 0 0 0 -0 -0 -0 -1 -1 -1 -1 -1 -1 -1 0 1 2 1 1 1 1 0 0 -0 -0 -0 -0 -0 -0 -0 -1 -1 -1 -1 -0 0 0 1 1 1 0 -0 -0 -1 -1 -1 -1 -1 -1 -1 -1 -1 -1 -1 -1 -1 -1 -0 -0 -0 -0 -0 -0 -1 -1 -0 -0 -0 -0
1 0 0 0 0 0 0 0 0 0 0 0 0 0 -0 -0 -0 0 0 0 0 0 1 1 1 1 0 0 0 0 0 0 0 0 1 1 0 0 -0 -0 -0 -0 -1 -1 -1 -2 -2 -2 -1 -1 0 1 1 1 1 1 1 0 -0 -0 -0 -0 -1 -0 -1 -1 -1 -1 -1 -1 -1 -0 0 1 1 0 -0 -1 -1 -1 -1 -1 -1 -1 -1 -1 -1 -1 -1 -1 -1 -1 -0 -0 -1 -1 -1 -1 -1 -1 -1 -0 -0
1 1 1 1 1 0 0 0 0 0 0 0 0 -0 -0 -0 -0 -0 0 0 1 1 1 1 1 0 0 0 0 0 0 0 1 1 1 1 1 0 -0 -0 -0 -0 -0 -1 -1 -1 -1 -2 -2 -1 -1 -1 -0 1 1 1 1 1 0 0 0 0 -0 -0 -0 -0 -1 -1 -1 -2 -3 -2 -2 -1 0 -0 -1 -1 -1 -1 -1 -1 -1 -1 -1 -1 -1 -1 -1 -1 -1 -1 -1 -1 -1 -1 -1 -1 -1 -1 -1 -1 -1
1 1 1 1 1 1 1 1 0 0 0 0 0 -0 -0 -0 -0 -0 0 0 1 1 1 1 1 1 0 0 0 0 0 0 0 1 1 1 0 -0 -0 -1 -1 -0 -0 -0 -0 -1 -1 -2 -2 -2 -2 -2 -1 -0 1 1 1 1 1 0 0 0 0 0 0 0 0 -1 -1 -1 -2 -3 -3 -2 -2 -2 -2 -1 -0 -0 -1 -1 -1 -1 -1 -1 -1 -1 -1 -1 -1 -1 -1 -1 -1 -1 -1 -1 -1 -1 -1 -1 -1
1 1 1 1 1 1 1 1 1 0 0 0 0 0 -0 -0 -0 0 0 0 1 1 1 1 1 1 1 1 0 0 0 0 0 1 0 0 -0 -0 -1 -1 -1 -0 0 0 -0 -0 -1 -1 -2 -2 -2 -2 -1 -1 -0 0 1 1 0 -0 -0 -0 -0 0 0 1 -0 -1 -0 -0 -1 -2 -2 -3 -2 -3 -3 -2 0 -0 -0 -1 -1 -1 -1 -1 -1 -1 -1 -1 -1 -1 -1 -1 -1 -1 -1 -1 -1 -1 -1 -1 -1
1 1 1 1 1 1 1 1 1 1 1 0 0 0 0 0 0 1 1 1 1 1 1 1 1 1 1 1 1 0 0 1 1 1 1 0 -0 -0 -1 -0 -0 -0 -0 0 0 0 -0 -1 -2 -2 -2 -2 -1 -1 -0 -0 0 0 0 -0 -0 -0 -1 -0 -0 0 0 -0 -0 -0 -0 -0 -1 -1 -1 -2 -2 -1 1 0 -0 -1 -1 -1 -1 -1 -1 -1 -1 -1 -2 -2 -2 -1 -1 -1 -1 -1 -1 -1 -1 -1 -1
1 1 1 1 1 1 1 1 1 1 1 1 1 1 1 1 1 1 1 1 1 1 0 1 1 1 1 1 1 1 1 1 1 1 1 1 1 1 1 0 0 -0 -0 0 1 1 1 0 -1 -1 -2 -2 -1 -1 -1 -0 -0 -0 -0 -0 -0 -0 -1 -1 -1 -0 0 0 -0 -0 -0 -0 -0 -1 -1 -1 -1 0 2 1 -0 -1 -0 -0 -0 -0 -1 -1 -1 -2 -2 -2 -2 -1 -1 -1 -1 -1 -1 -1 -1 -1 -1
1 1 1 2 2 2 1 1 1 1 1 1 1 1 1 1 1 1 1 1 1 1 0 0 0 0 0 0 0 0 1 1 1 1 1 1 1 1 1 1 1 0 0 0 1 1 1 1 0 -0 -1 -1 -1 -1 -1 -0 -0 -0 -0 -0 -0 -0 -1 -1 -1 -1 -0 -0 0 0 -0 0 0 -0 -0 -0 1 1 1 0 -0 -1 -0 -0 -0 -0 -0 -1 -1 -2 -2 -2 -2 -1 -1 -1 -1 -1 -1 -1 -1 -1 -1
1 2 2 2 2 2 1 1 1 1 1 1 1 1 1 1 1 1 1 1 1 1 0 0 -0 -0 -0 -0 -0 -0 -0 0 0 -0 -0 -0 -0 -0 0 0 0 0 0 0 0 0 0 0 0 0 -0 -0 -1 -1 -1 -0 -0 -0 -0 -0 -1 -1 -1 -0 -0 -1 -1 -1 -0 -0 0 0 1 1 0 0 0 1 1 0 -0 -1 -1 -0 -0 -0 -0 -1 -1 -1 -2 -2 -1 -1 -1 -1 -1 -1 -1 -1 -1 -1 -1
1 1 2 1 1 1 1 1 1 1 1 1 1 1 1 1 1 0 0 1 1 0 0 0 -0 -0 -0 -0 -1 -0 -0 -0 -1 -1 -1 -1 -1 -1 -1 -1 -1 -1 -0 -0 -0 -0 -0 -1 -1 -1 -0 -1 -1 -1 -1 -0 -0 -0 -0 -1 -1 -1 -0 -0 -0 -0 -1 -1 -1 -1 -1 -0 0 1 0 -0 -1 -1 -0 0 -0 -1 -1 -1 -0 -0 -1 -1 -1 -1 -1 -1 -1 -1 -1 -1 -1 -1 -1 -1 -1 -1 -1
1 1 1 1 1 1 1 1 1 1 1 1 1 1 1 1 1 1 1 1 1 0 0 0 0 -0 -0 -0 -1 -1 -1 -1 -1 -1 -1 -1 -1 -2 -2 -2 -2 -2 -1 -1 -1 -1 -1 -1 -1 -1 -1 -1 -1 -2 -1 -1 -0 0 -0 -0 -0 -0 -0 0 0 0 -0 -1 -1 -2 -1 -1 -0 0 0 -1 -2 -1 -0 0 -0 -0 -0 -0 -0 -1 -1 -1 -1 -1 -1 -1 -1 -1 -1 -1 -1 -1 -1 -1 -1 -1 -1
1 1 1 1 1 1 1 1 1 0 0 0 1 1 2 1 1 1 1 1 1 0 0 0 0 -0 -0 -0 -1 -1 -1 -1 -1 -1 -1 -1 -2 -2 -2 -2 -2 -2 -2 -2 -2 -1 -1 -1 -1 -1 -1 -1 -2 -2 -2 -1 -1 0 0 0 0 0 0 1 1 1 0 -0 -1 -1 -1 -1 -0 0 1 1 0 -0 -1 -0 0 0 -0 -0 -0 -1 -1 -1 -1 -1 -1 -1 -1 -1 -1 -1 -1 -1 -1 -1 -1 -1 -1
0 0 0 1 1 1 1 1 1 0 0 0 1 1 2 1 1 1 1 1 1 1 0 -0 -0 -1 -1 -1 -1 -1 -1 -1 -2 -2 -3 -3 -3 -3 -3 -2 -2 -2 -2 -2 -1 -1 -1 -0 -1 -1 -1 -1 -1 -2 -2 -2 -1 -0 1 1 1 1 1 0 0 0 0 0 -0 -0 -1 -1 -0 1 1 3 2 0 -1 -1 -0 0 0 0 -0 -1 -1 -1 -1 -0 -0 -0 -0 -0 -0 -1 -1 -1 -1 -1 -1 -1 -1
0 0 1 1 1 2 2 1 1 0 0 0 1 1 1 1 1 1 1 1 1 0 -0 -0 -1 -1 -1 -1 -1 -1 -2 -2 -3 -3 -3 -3 -3 -3 -2 -2 -1 -1 -1 -1 -1 -0 -0 -0 -0 -0 -0 -0 -0 -0 -1 -2 -2 -1 0 1 1 1 1 0 0 0 0 0 0 0 -0 -0 -0 0 1 2 1 1 0 -0 -0 1 1 1 0 -0 -1 -1 -1 -1 -0 -0 -0 -0 -0 -0 -0 -0 -1 -1 -1 -1 -1
0 0 1 1 1 2 2 1 1 0 0 0 1 1 1 1 1 1 1 1 0 0 -0 -0 -0 -1 -1 -1 -1 -2 -3 -3 -3 -2 -2 -2 -2 -2 -1 -1 -1 -1 -1 -1 -1 -1 -1 -0 -0 -0 0 1 1 1 1 -1 -1 -1 -0 1 1 1 1 1 0 -0 -1 -0 -0 0 -0 -0 -0 -0 1 2 3 3 2 0 -0 1 1 1 1 0 -0 -1 -1 -1 -0 -0 -0 -0 -0 0 0 0 -0 -0 -1 -1 -1
1 1 1 1 1 2 1 1 1 1 1 1 1 1 1 1 1 1 1 0 0 0 -0 -1 -1 -2 -2 -2 -2 -2 -2 -2 -1 -1 -1 -1 -1 -1 -1 -1 -1 -1 -1 -1 -2 -2 -2 -1 -1 -0 0 1 1 2 2 1 -0 -0 -0 0 1 1 1 1 0 -0 -1 -1 -1 -0 -0 -0 -0 -1 -0 1 2 3 5 2 0 -1 -0 0 0 0 -1 -1 -2 -1 -1 -0 0 1 1 1 0 0 0 -0 -0 -1 -1
1 1 1 1 1 1 1 1 1 1 1 1 1 1 1 1 1 1 -0 -0 -0 -0 -1 -2 -2 -2 -1 -1 -1 -1 -1 -1 -1 -1 -1 -1 -1 -1 -1 -1 -0 -0 -1 -1 -2 -2 -3 -2 -2 -1 -0 1 1 1 2 1 0 -0 -0 0 1 1 1 1 1 0 -0 -1 -1 -1 -0 -0 -0 -0 -1 -0 -0 1 5 5 3 0 -1 -1 -1 -1 -3 -3 -3 -2 -2 -1 0 1 1 1 0 0 0 -1 -1 -1 -1
1 1 1 1 1 1 1 1 1 1 1 1 1 0 0 0 -0 -0 -1 -1 -1 -1 -2 -2 -1 -1 -1 -0 -0 -1 -1 -1 -2 -2 -1 -1 -1 -1 -1 -0 -0 -0 -0 -1 -1 -2 -2 -2 -2 -1 -1 -0 0 1 1 1 1 -0 -1 -0 -0 1 1 1 1 1 1 0 -0 -1 -1 -1 -0 0 0 0 -0 -0 2 4 4 3 2 1 -0 -1 -2 -3 -4 -3 -3 -2 -1 -0 1 -0 -0 -0 0 -1 -1 -1 -1
-0 -0 0 0 1 1 1 1 1 0 0 0 0 0 -0 -0 -0 -1 -1 -0 -0 -0 -1 -1 -1 -1 -0 -1 -1 -1 -2 -2 -2 -2 -2 -1 -1 -1 -1 -0 -0 -0 -0 -0 -0 -1 -1 -1 -1 -1 -1 -0 -0 -0 -0 0 0 -0 -1 -1 -0 0 1 1 2 2 2 1 1 -0 -1 -1 -1 0 1 1 1 1 -1 1 3 4 4 4 2 0 2 2 0 -2 -4 -3 -3 -1 -0 -0 -1 -1 -1 -1 -1 -1 -1
-0 -0 -1 -0 0 0 1 0 0 0 -0 -0 -0 -0 -0 -0 -0 -0 -0 -0 0 0 -0 -1 -1 -1 -1 -1 -1 -2 -2 -2 -2 -2 -2 -2 -1 -1 -1 -0 -0 -1 -0 -0 -0 -0 -0 -1 -0 -0 0 0 -0 -0 -1 -1 -0 -0 0 -0 -0 0 1 1 2 2 2 2 1 -0 -1 -1 -0 0 1 1 2 3 1 -1 0 3 7 5 3 2 5 5 5 4 1 -1 0 2 2 1 1 1 -0 -1 -1 -1 -1
-0 -0 -0 -0 -0 0 0 0 0 0 0 0 0 0 0 -0 -0 -0 -0 0 1 0 -0 -1 -1 -1 -1 -2 -2 -2 -2 -2 -2 -2 -2 -1 -1 -1 -1 -1 -1 -1 -1 -1 -1 -0 -0 0 0 1 1 1 1 0 -0 -1 -0 0 1 1 1 0 0 1 1 2 2 2 1 0 -0 -0 -0 -0 -0 1 1 2 4 2 0 1 6 8 6 4 6 2 2 4 5 3 5 7 7 5 4 4 4 2 0 -1 -2
-0 -0 -0 -0 0 0 0 0 1 1 0 0 0 0 0 0 0 -0 0 1 1 1 -0 -1 -1 -1 -2 -2 -2 -2 -2 -2 -1 -1 -1 -1 -1 -1 -1 -0 -1 -1 -2 -2 -1 -1 -0 0 1 2 2 2 2 1 1 1 1 1 1 1 1 1 0 1 1 2 2 1 1 1 1 1 0 -0 -1 -0 -0 1 1 1 0 0 2 5 6 6 6 2 1 1 4 7 7 6 5 4 4 5 7 5 2 -1 -2
-0 -0 0 0 0 0 0 0 1 1 1 1 1 1 0 0 0 0 0 1 1 0 -0 -1 -1 -1 -2 -2 -2 -1 -1 -1 -1 -1 -1 -1 -1 -1 -0 -0 -0 -1 -2 -3 -3 -2 -1 -0 1 2 2 2 2 2 2 2 2 1 1 1 1 1 0 0 1 1 2 1 1 1 2 2 1 0 -0 -1 -1 -1 -1 -1 -1 -0 -0 1 2 4 3 3 2 1 2 6 6 3 -2 -2 -0 2 6 6 3 1 -1
-0 -0 -0 0 0 0 0 1 1 1 1 1 1 1 1 0 0 0 0 0 0 -0 -1 -1 -1 -1 -1 -1 -1 -1 -0 -1 -1 -1 -1 -1 -1 -1 -0 0 0 -0 -1 -2 -3 -3 -3 -1 -0 1 2 2 2 3 3 2 2 1 1 0 -0 -0 0 -0 0 1 1 1 1 2 3 2 2 1 1 0 -0 -1 -1 -2 -2 -1 0 2 4 4 -1 1 1 0 1 4 4 1 -3 -2 1 4 8 8 7 4 2
-0 -0 -0 0 0 1 1 1 1 1 1 1 1 1 1 0 0 0 0 -0 -0 -0 -1 -1 -2 -1 -1 -1 -1 -1 -0 -1 -1 -2 -1 -1 -1 -1 -1 0 0 0 -0 -1 -2 -3 -4 -3 -1 0 2 2 3 3 3 3 3 2 0 -0 -1 -1 -0 -1 -0 1 1 1 1 1 3 2 1 1 0 0 0 0 -1 -1 -2 -2 0 4 6 5 -2 -0 0 0 0 3 3 1 -0 2 5 8 11 8 6 5 4
-0 -0 -0 0 0 1 1 1 0 0 0 0 0 0 0 0 0 0 0 -0 -0 -1 -1 -1 -1 -1 -0 0 0 -0 -0 -1 -1 -2 -2 -2 -1 -2 -2 -1 -1 -1 -0 -0 -0 -1 -2 -3 -2 -1 1 2 2 3 3 3 3 2 1 -1 -1 -1 -1 -1 -0 1 1 1 1 1 2 2 1 -0 -1 -0 0 1 1 -0 -1 -2 -1 2 4 3 -1 -1 -0 1 1 3 2 1 2 3 4 5 7 3 1 3 8
-0 -0 -0 0 0 0 0 0 0 0 0 0 0 0 0 0 1 0 0 -0 -0 -1 -1 -1 -1 -0 -0 0 0 -0 -1 -1 -1 -2 -2 -2 -1 -2 -2 -3 -4 -4 -3 -1 -1 -0 -0 -1 -1 -1 -0 1 1 2 3 3 3 3 1 -1 -1 -2 -2 -1 0 1 1 1 1 1 1 0 -1 -1 -2 -0 1 2 2 1 -0 -1 -3 1 3 3 0 -0 -0 0 1 2 2 1 2 1 -0 -1 -1 -3 -3 0 9
-0 -0 -0 0 0 0 0 0 0 0 0 0 0 0 0 1 1 0 -0 -0 -1 -1 -0 -0 0 -0 -0 -0 -0 -0 -1 -2 -2 -1 -1 -0 0 0 -1 -3 -4 -5 -4 -3 -2 -1 1 1 0 -1 -1 -1 -0 1 2 3 4 3 1 -0 -1 -2 -2 -1 -0 1 2 1 1 1 1 0 -0 -0 0 1 1 2 1 0 -1 -2 -3 0 2 2 1 1 1 1 1 1 1 2 2 1 -0 -2 -4 -4 -4 -2 4
-0 -0 -0 0 0 1 0 0 -0 -0 -0 -0 0 0 0 1 1 0 -0 -0 -1 -1 -0 0 1 0 -0 -1 -1 -0 -1 -2 -2 -1 0 4 6 5 2 -1 -2 -2 -2 -2 -1 -0 1 2 1 0 -1 -2 -2 -1 1 3 4 2 0 -1 -1 -1 -1 -1 -1 -0 0 1 1 0 0 0 1 2 2 2 1 1 -0 -1 -3 -3 -3 0 1 2 1 2 2 2 1 1 1 2 2 2 2 0 -2 -3 -3 -2 0
-0 -0 -0 -0 0 0 0 -0 -0 -0 -0 -0 0 0 0 0 0 0 -0 -0 -1 -1 -1 0 1 0 -0 -1 -1 -1 -1 -1 -2 -1 -0 3 5 5 3 1 -0 -0 -1 -1 -0 0 1 2 2 1 -1 -2 -2 -1 0 3 3 2 -0 -1 -1 -1 -1 -1 -1 -1 -1 -1 -1 -1 -0 -0 0 1 1 1 0 0 -1 -2 -3 -3 -1 1 2 2 1 1 2 2 2 1 1 1 1 2 3 2 -0 -2 -2 -1 -1
-0 -1 -1 -1 -0 0 1 -0 -0 -1 -0 -0 -0 -0 -0 -0 0 0 -0 -0 -0 -1 -1 -0 0 0 0 -0 -1 -1 -1 -1 -0 -0 -1 -2 -1 0 0 -0 -0 -0 -1 -1 -0 1 1 1 1 1 -0 -1 -1 -1 0 2 2 1 -0 -1 -1 -1 -1 -2 -2 -2 -3 -2 -2 -1 -1 0 1 1 1 1 1 1 -0 -2 -2 -1 1 2 2 1 1 1 1 1 1 1 1 1 1 2 3 3 2 -0 -2 -3 -2
-1 -1 -1 -1 -0 0 1 -0 -1 -1 -0 -0 -0 -0 -1 -0 0 0 -0 -0 -0 -1 -1 -1 -1 -0 0 0 0 -0 -1 -0 1 1 1 -2 -3 -3 -3 -3 -2 -1 -0 -1 -0 0 0 -0 -0 0 0 -0 -0 -0 0 2 1 0 -1 -1 -1 -0 -1 -1 -2 -2 -3 -3 -2 -1 -0 0 1 1 2 2 2 1 -0 -1 -1 1 2 2 2 1 1 1 1 1 1 1 1 1 1 2 2 3 3 2 -0 -3 -3
-1 -1 -1 -0 -0 0 -0 -0 -1 -0 -0 -0 -0 -1 -1 0 1 1 1 0 -0 -0 -0 -0 -0 -0 -0 0 0 0 -0 -0 1 2 5 3 0 -2 -2 -3 -3 -2 1 1 1 0 -0 -1 -1 -1 -0 0 0 0 1 2 1 -1 -1 -0 0 0 0 -0 -1 -2 -2 -2 -2 -1 -0 1 1 1 1 1 1 1 -0 -0 1 1 2 1 1 1 1 1 1 1 1 1 1 1 0 0 1 1 2 3 2 1 0
-1 -0 -0 -0 -0 -0 -1 -1 -0 -0 -0 -0 -0 -0 1 1 1 1 1 1 0 0 0 0 0 0 -0 -0 -0 -1 -0 -0 1 4 7 6 3 0 -0 -1 -1 -1 1 3 3 1 -1 -1 -2 -2 -2 -1 -0 0 1 1 0 -1 -2 -0 1 1 1 0 -0 -1 -2 -2 -2 -1 -0 1 1 1 1 1 1 1 0 1 1 1 1 0 0 0 1 1 1 1 1 0 0 0 -0 -0 -0 -0 1 2 2 2 2
-0 -0 -0 -0 -1 -1 -1 -1 -0 -0 -0 -0 -0 0 1 1 1 1 1 1 1 1 0 -0 0 1 1 -1 -2 -2 -1 0 2 5 6 4 2 0 -2 -2 -2 -3 -4 -2 -0 0 -1 -2 -3 -3 -2 -1 -1 0 1 1 -0 -1 -2 -0 1 1 1 0 -0 -1 -2 -2 -2 -1 -1 -0 0 1 1 1 1 1 1 1 0 0 -0 -0 -0 0 1 1 1 1 0 0 -0 -0 -0 -1 -1 -1 -0 1 1 2 3
1 0 0 0 -0 -0 -0 0 0 -0 -0 -0 -0 -0 -0 -0 -0 -0 -0 -0 0 1 1 -0 -0 0 2 -0 -2 -3 -1 1 3 5 4 -1 -1 0 -0 -2 -3 -4 -5 -4 -2 -0 -0 -1 -2 -3 -2 -2 -1 -0 0 0 -0 -1 -2 -1 0 0 -0 -1 -2 -2 -2 -3 -3 -3 -2 -1 -0 0 1 1 1 2 1 1 -0 -0 -0 -0 -0 0 0 1 0 0 0 -0 -0 -1 -1 -1 -1 -1 -1 -0 0 1 2
1 1 1 1 1 1 1 1 1 1 1 0 -0 -0 -0 -1 -1 -1 -0 0 1 2 3 2 1 0 1 1 -1 -1 -0 2 4 4 2 -1 -2 -1 1 2 0 -3 -6 -4 -2 0 3 0 -2 -3 -2 -2 -2 -1 -0 -0 -0 -1 -1 -1 -0 -1 -2 -3 -4 -3 -3 -3 -4 -4 -4 -3 -2 -1 0 1 1 2 1 0 -0 -0 -0 -0 0 0 1 1 0 0 -0 -0 -0 -1 -1 -1 -1 -1 -1 -1 -0 -0 0
1 1 1 1 1 1 2 2 2 1 1 0 -0 -1 -0 -0 -0 -0 1 1 2 3 4 4 5 5 2 1 0 -1 -1 1 3 3 2 2 2 2 2 3 1 -3 -4 -2 -4 -6 -3 -1 -2 -4 -3 -2 -2 -2 -1 -0 0 0 0 0 -0 -1 -3 -4 -3 -2 -1 -2 -2 -3 -5 -5 -4 -2 -1 0 1 1 1 0 0 -0 -0 -0 0 1 1 1 1 1 0 -0 -0 -0 -0 -0 -1 -1 -1 -1 -1 -1 -0
1 0 0 0 1 1 2 1 1 1 1 0 -1 -1 -1 -1 -0 0 1 3 3 4 5 6 8 8 5 1 0 0 -1 1 2 3 2 2 3 4 2 0 0 1 -0 0 -2 -5 -10 -3 -1 -1 -1 -1 -1 -2 -2 0 1 1 1 1 1 0 -1 -1 -1 -0 0 0 -0 -1 -4 -5 -5 -3 -2 -1 0 1 1 1 0 0 -0 0 1 1 1 1 1 1 0 0 0 0 0 -0 -0 -0 -0 -1 -1 -1 -1
1 1 0 0 1 1 1 1 1 1 0 -0 -1 -2 -2 -1 -1 0 1 1 2 3 4 4 6 6 5 1 -0 -0 1 1 3 4 4 2 3 3 1 -0 1 3 3 2 1 -2 -7 -3 -2 -1 -1 -1 -1 -2 -2 -0 1 1 1 1 1 0 -1 -1 -0 1 1 1 1 -0 -2 -4 -4 -4 -2 -1 -0 1 1 1 0 -0 -0 0 1 1 1 1 1 0 -0 -0 0 0 0 0 0 -0 -0 -0 -0 -0 -0
2 1 1 0 -0 -1 -1 -1 -1 -1 -1 -1 -1 -2 -2 -1 -1 -1 -1 -1 -1 -0 -0 -0 0 1 3 1 -0 -1 1 2 3 4 4 3 3 3 3 2 2 2 -0 -2 -3 -1 3 2 0 -1 -1 -1 -2 -3 -3 -1 -0 1 0 1 1 0 -2 -3 -3 -2 -0 -0 0 1 -0 -2 -3 -3 -2 -1 -0 1 1 1 0 -0 -0 -0 0 0 0 -0 -0 -1 -1 -0 0 0 0 0 0 0 0 0 0 0 0
2 1 1 1 0 0 0 0 0 -0 -0 -1 -1 -1 -1 -1 -1 -1 -1 -1 -1 -1 -1 -1 -1 -0 1 2 2 0 -0 0 1 2 4 4 4 4 5 1 -3 -5 -2 -4 -5 -2 3 3 -0 -2 -1 -1 -1 -2 -2 -1 -0 1 2 2 2 1 -0 -3 -5 -5 -3 -1 -0 0 0 -0 -1 -2 -1 -0 0 0 1 1 1 0 -0 -0 -0 -0 -1 -1 -1 -1 -1 -0 0 0 0 0 0 0 1 1 1 1 0
1 1 1 1 1 1 1 -0 -0 -1 -1 -1 -0 -0 -1 -1 -1 -1 -1 -0 -0 -0 -0 0 0 0 1 3 3 1 -1 -3 -2 1 4 5 4 4 3 2 0 -1 -1 -4 -3 -0 3 3 -0 -3 1 2 2 1 -0 -0 -0 0 1 2 2 1 1 -2 -5 -6 -5 -3 -2 -1 -1 -1 -1 -1 -0 0 0 0 0 0 0 -0 -0 -1 -1 -1 -1 -1 -1 -1 -0 -0 -0 -0 0 0 0 1 1 1 1 1 0
1 1 1 1 0 0 -0 -1 -0 -0 0 0 0 1 0 0 0 0 1 1 1 1 2 2 1 1 2 2 2 2 -1 -3 -2 1 4 4 3 3 4 3 3 4 4 2 1 1 3 3 -0 -3 2 3 2 1 2 1 1 1 1 1 0 -0 -0 -0 -1 -2 -3 -3 -3 -2 -2 -1 -0 0 1 0 0 0 0 0 -0 -0 -1 -1 -1 -1 -1 -1 -1 -0 -0 -0 -0 -0 -0 -0 0 0 0 0 0 0 -0
-0 0 0 0 -0 -0 -0 -0 0 0 0 0 0 1 1 1 1 1 2 2 2 2 3 2 2 2 3 3 3 2 -0 -2 -1 2 5 3 1 -0 4 4 3 2 3 2 1 -0 1 0 0 1 3 2 2 2 2 2 2 3 3 2 2 1 1 1 1 0 -2 -3 -3 -3 -3 -2 -0 1 1 1 0 0 0 0 -0 -0 -1 -1 -1 -1 -1 -1 -1 -0 -0 -1 -1 -1 -1 -0 -0 -0 -0 -1 -1 -1 -1
-0 0 0 -0 -0 -0 -0 0 1 1 0 1 1 1 1 2 2 2 3 3 3 4 4 4 3 3 3 3 3 2 0 -1 -1 0 4 3 0 -2 2 4 3 1 2 1 0 -0 1 -0 1 2 3 1 2 4 4 2 2 4 3 2 2 3 3 1 -1 -2 -2 -2 -3 -4 -5 -3 -1 1 1 1 0 0 0 0 -0 -0 -1 -1 -1 -1 -1 -1 -1 -1 -1 -1 -1 -1 -1 -1 -1 -1 -1 -1 -1 -1 -1
Height
1572 1572 1573 1573 1573 1574 1574 1574 1574 1574 1575 1575 1575 1575 1575 1575 1575 1575 1575 1576 1576 1576 1576 1576 1576 1576 1575 1575 1575 1575 1575 1575 1575 1574 1574 1574 1574 1574 1573 1573 1573 1573 1573 1573 1573 1573 1572 1572 1572 1571 1571 1570 1570 1570 1570 1569 1569 1569 1568 1568 1568 1568 1567 1567 1566 1566 1566 1565 1565 1565 1564 1564 1563 1563 1563 1562 1562 1561 1561 1560 1560 1560 1560 1559 1559 1558 1558 1558 1557 1557 1557 1556 1556 1556 1555 1555 1555 1554 1554 1554 1553 1553 1552
1573 1573 1573 1574 1574 1574 1575 1575 1575 1575 1575 1575 1575 1575 1576 1576 1576 1576 1576 1576 1576 1576 1576 1576 1576 1576 1576 1576 1576 1575 1575 1575 1575 1575 1575 1575 1574 1574 1574 1574 1573 1573 1573 1573 1573 1573 1573 1573 1572 1572 1571 1571 1571 1570 1570 1570 1569 1569 1569 1568 1568 1568 1567 1567 1567 1566 1566 1566 1565 1565 1565 1564 1564 1563 1563 1562 1562 1562 1561 1561 1560 1560 1560 1560 1559 1559 1558 1558 1558 1557 1557 1557 1556 1556 1555 1555 1555 1555 1554 1554 1554 1553 1553
1574 1574 1574 1574 1575 1575 1575 1575 1575 1575 1576 1576 1576 1576 1577 1577 1577 1577 1577 1577 1577 1577 1577 1577 1577 1576 1576 1576 1576 1576 1576 1575 1575 1575 1575 1575 1575 1575 1575 1574 1574 1574 1574 1574 1574 1574 1573 1573 1572 1572 1572 1572 1571 1571 1571 1570 1570 1570 1569 1569 1568 1568 1568 1568 1567 1567 1566 1566 1566 1565 1565 1565 1564 1564 1563 1563 1562 1562 1562 1561 1561 1560 1560 1560 1560 1559 1559 1558 1558 1558 1557 1557 1556 1556 1556 1555 1555 1555 1554 1554 1554 1554 1553
1574 1574 1575 1575 1575 1575 1576 1576 1576 1576 1577 1577 1577 1577 1577 1577 1577 1577 1577 1577 1577 1577 1577 1577 1577 1577 1577 1577 1576 1576 1576 1576 1576 1576 1576 1575 1575 1575 1575 1575 1575 1574 1574 1574 1574 1574 1574 1573 1573 1573 1572 1572 1572 1571 1571 1571 1570 1570 1570 1569 1569 1569 1568 1568 1567 1567 1567 1566 1566 1565 1565 1565 1564 1564 1564 1563 1563 1562 1562 1561 1561 1561 1560 1560 1560 1559 1559 1559 1558 1558 1558 1557 1557 1556 1556 1555 1555 1555 1555 1554 1554 1554 1553
1574 1575 1575 1575 1576 1576 1576 1577 1577 1577 1577 1578 1578 1578 1578 1578 1578 1578 1578 1578 1577 1577 1577 1577 1577 1577 1577 1577 1577 1577 1577 1576 1576 1576 1576 1576 1576 1576 1575 1575 1575 1575 1574 1574 1574 1574 1574 1574 1573 1573 1573 1572 1572 1572 1571 1571 1571 1570 1570 1570 1570 1569 1569 1568 1568 1567 1567 1567 1566 1566 1565 1565 1565 1564 1564 1563 1563 1563 1562 1562 1561 1561 1560 1560 1560 1560 1559 1559 1559 1558 1558 1557 1557 1556 1556 1556 1555 1555 1555 1554 1554 1554 1553
1575 1575 1576 1576 1576 1577 1577 1577 1578 1578 1578 1578 1578 1578 1578 1578 1578 1578 1578 1578 1578 1578 1578 1577 1577 1577 1577 1577 1577 1577 1577 1577 1577 1577 1576 1576 1576 1576 1576 1575 1575 1575 1575 1575 1575 1575 1574 1574 1574 1573 1573 1573 1572 1572 1572 1571 1571 1571 1570 1570 1570 1570 1569 1569 1568 1568 1567 1567 1566 1566 1566 1565 1565 1565 1564 1564 1563 1563 1562 1562 1562 1561 1561 1560 1560 1560 1560 1559 1559 1558 1558 1558 1557 1557 1556 1556 1555 1555 1555 1555 1554 1554 1553
1575 1576 1576 1577 1577 1577 1578 1578 1578 1578 1578 1578 1578 1578 1578 1578 1578 1578 1578 1578 1578 1578 1578 1578 1578 1578 1578 1578 1578 1577 1577 1577 1577 1577 1577 1577 1576 1576 1576 1576 1575 1575 1575 1575 1575 1575 1575 1574 1574 1573 1573 1573 1572 1572 1572 1572 1571 1571 1571 1570 1570 1570 1569 1569 1568 1568 1568 1567 1567 1566 1566 1565 1565 1565 1564 1564 1563 1563 1563 1562 1562 1561 1561 1561 1560 1560 1560 1560 1559 1559 1558 1558 1557 1557 1557 1556 1556 1555 1555 1555 1554 1554 1554
1576 1576 1577 1577 1577 1578 1578 1578 1578 1578 1578 1578 1578 1578 1578 1578 1578 1578 1578 1578 1578 1578 1578 1578 1578 1578 1578 1578 1578 1578 1578 1578 1577 1577 1577 1577 1577 1577 1576 1576 1576 1575 1575 1575 1575 1575 1575 1575 1574 1574 1573 1573 1573 1572 1572 1572 1571 1571 1571 1570 1570 1570 1570 1569 1569 1568 1568 1567 1567 1566 1566 1566 1565 1565 1565 1564 1564 1563 1563 1562 1562 1562 1561 1561 1560 1560 1560 1560 1559 1559 1558 1558 1558 1557 1557 1556 1556 1556 1555 1555 1555 1554 1554
1576 1577 1577 1577 1578 1578 1578 1578 1578 1578 1578 1578 1578 1578 1578 1578 1578 1578 1578 1578 1578 1578 1578 1578 1578 1578 1578 1578 1578 1578 1578 1578 1578 1577 1577 1577 1577 1577 1577 1576 1576 1576 1575 1575 1575 1575 1575 1575 1574 1574 1574 1573 1573 1573 1572 1572 1572 1571 1571 1571 1570 1570 1570 1569 1569 1568 1568 1567 1567 1567 1566 1566 1565 1565 1565 1564 1564 1563 1563 1562 1562 1562 1561 1561 1561 1560 1560 1560 1560 1559 1559 1558 1558 1557 1557 1556 1556 1556 1555 1555 1555 1554 1554
1577 1577 1577 1577 1578 1578 1578 1578 1578 1578 1578 1578 1578 1578 1578 1578 1578 1579 1579 1579 1579 1579 1578 1578 1578 1578 1578 1578 1578 1578 1578 1578 1578 1578 1578 1577 1577 1577 1577 1576 1576 1576 1576 1575 1575 1575 1575 1575 1575 1574 1574 1573 1573 1573 1572 1572 1572 1571 1571 1571 1570 1570 1570 1569 1569 1568 1568 1567 1567 1567 1566 1566 1565 1565 1565 1564 1564 1563 1563 1563 1562 1562 1561 1561 1561 1560 1560 1560 1560 1559 1559 1558 1558 1557 1557 1556 1556 1556 1556 1555 1555 1554 1554
1577 1577 1577 1578 1578 1578 1578 1578 1578 1578 1578 1578 1578 1578 1579 1579 1579 1579 1579 1579 1579 1579 1579 1579 1579 1578 1578 1578 1578 1578 1578 1578 1578 1578 1578 1578 1577 1577 1577 1577 1576 1576 1576 1575 1575 1575 1575 1575 1575 1574 1574 1574 1573 1573 1573 1572 1572 1572 1571 1571 1570 1570 1570 1570 1569 1569 1568 1568 1567 1567 1566 1566 1565 1565 1565 1565 1564 1564 1563 1563 1562 1562 1562 1561 1561 1560 1560 1560 1560 1559 1559 1558 1558 1557 1557 1556 1556 1556 1556 1555 1555 1555 1554
1577 1577 1578 1578 1578 1578 1578 1578 1578 1578 1578 1578 1578 1579 1579 1579 1579 1579 1579 1579 1579 1579 1579 1579 1579 1579 1579 1578 1578 1578 1578 1578 1578 1578 1578 1578 1578 1577 1577 1577 1577 1576 1576 1576 1575 1575 1575 1575 1575 1575 1574 1574 1573 1573 1573 1572 1572 1572 1571 1571 1571 1570 1570 1570 1569 1569 1568 1568 1567 1567 1566 1566 1565 1565 1565 1565 1564 1564 1563 1563 1562 1562 1562 1561 1561 1561 1560 1560 1560 1559 1559 1559 1558 1558 1557 1557 1556 1556 1556 1555 1555 1555 1554
1577 1577 1578 1578 1578 1578 1578 1578 1578 1578 1578 1578 1578 1579 1579 1579 1579 1579 1579 1579 1579 1579 1579 1579 1579 1579 1579 1579 1579 1578 1578 1578 1578 1578 1578 1578 1578 1577 1577 1577 1577 1576 1576 1576 1576 1575 1575 1575 1575 1575 1574 1574 1573 1573 1573 1573 1572 1572 1572 1571 1571 1570 1570 1570 1569 1569 1568 1568 1567 1567 1566 1566 1566 1565 1565 1565 1564 1564 1564 1563 1563 1562 1562 1561 1561 1561 1560 1560 1560 1559 1559 1559 1558 1558 1557 1557 1556 1556 1556 1555 1555 1555 1554
1577 1577 1577 1578 1578 1578 1578 1578 1578 1578 1578 1578 1578 1578 1578 1579 1579 1579 1579 1579 1579 1579 1579 1579 1579 1579 1579 1579 1579 1578 1578 1578 1578 1578 1578 1578 1578 1577 1577 1577 1577 1576 1576 1576 1576 1575 1575 1575 1575 1575 1574 1574 1573 1573 1573 1573 1572 1572 1572 1571 1571 1570 1570 1570 1569 1569 1568 1568 1568 1567 1567 1566 1566 1565 1565 1565 1564 1564 1564 1563 1563 1562 1562 1562 1561 1561 1560 1560 1560 1559 1559 1559 1558 1558 1557 1557 1557 1556 1556 1555 1555 1555 1555
1577 1577 1577 1577 1578 1578 1578 1578 1578 1578 1578 1578 1578 1578 1578 1578 1579 1579 1579 1579 1579 1579 1579 1579 1579 1579 1579 1579 1579 1579 1578 1578 1578 1578 1578 1578 1577 1577 1577 1577 1577 1576 1576 1576 1575 1575 1575 1575 1575 1574 1574 1574 1573 1573 1573 1573 1572 1572 1572 1571 1571 1570 1570 1570 1569 1569 1568 1568 1568 1567 1567 1566 1566 1565 1565 1565 1564 1564 1564 1563 1563 1563 1562 1562 1562 1561 1561 1560 1560 1560 1559 1559 1558 1558 1558 1557 1557 1556 1556 1556 1555 1555 1555
1577 1577 1577 1577 1577 1577 1578 1578 1578 1578 1578 1578 1578 1578 1578 1578 1579 1579 1579 1579 1579 1579 1579 1579 1579 1579 1579 1579 1579 1579 1578 1578 1578 1578 1578 1578 1577 1577 1577 1577 1576 1576 1576 1575 1575 1575 1575 1575 1574 1574 1574 1574 1573 1573 1573 1573 1572 1572 1571 1571 1571 1570 1570 1570 1569 1569 1568 1568 1567 1567 1567 1566 1566 1566 1565 1565 1564 1564 1564 1563 1563 1563 1562 1562 1562 1561 1561 1560 1560 1560 1559 1559 1559 1558 1558 1557 1557 1557 1556 1556 1555 1555 1555
1576 1577 1577 1577 1577 1577 1577 1577 1578 1578 1578 1578 1578 1578 1578 1578 1578 1579 1579 1579 1579 1579 1579 1579 1579 1579 1579 1579 1579 1578 1578 1578 1578 1578 1578 1578 1577 1577 1577 1577 1576 1576 1576 1575 1575 1575 1575 1575 1574 1574 1574 1573 1573 1573 1573 1573 1572 1572 1572 1571 1571 1570 1570 1570 1569 1569 1568 1568 1567 1567 1566 1566 1566 1566 1565 1565 1565 1564 1564 1563 1563 1563 1562 1562 1562 1561 1561 1560 1560 1560 1560 1559 1559 1558 1558 1557 1557 1557 1556 1556 1555 1555 1555
1576 1576 1576 1577 1577 1577 1577 1577 1577 1578 1578 1578 1578 1578 1578 1578 1578 1578 1578 1578 1579 1579 1579 1579 1579 1579 1579 1579 1578 1578 1578 1578 1578 1578 1578 1577 1577 1577 1577 1576 1576 1576 1575 1575 1575 1575 1575 1575 1574 1574 1573 1573 1573 1573 1572 1572 1572 1572 1572 1571 1571 1571 1570 1570 1570 1569 1568 1568 1567 1567 1566 1566 1565 1565 1565 1565 1565 1564 1564 1563 1563 1563 1562 1562 1562 1561 1561 1561 1560 1560 1560 1559 1559 1558 1558 1558 1557 1557 1556 1556 1556 1555 1555
1576 1576 1576 1576 1576 1577 1577 1577 1577 1577 1577 1578 1578 1578 1578 1578 1578 1578 1578 1578 1578 1578 1579 1579 1579 1579 1579 1578 1578 1578 1578 1578 1578 1578 1578 1577 1577 1577 1577 1576 1576 1576 1575 1575 1575 1575 1574 1574 1574 1574 1573 1573 1572 1572 1572 1572 1572 1572 1571 1571 1571 1570 1570 1570 1570 1569 1569 1568 1567 1567 1566 1565 1565 1565 1565 1565 1565 1564 1564 1564 1563 1563 1563 1562 1562 1561 1561 1561 1560 1560 1560 1559 1559 1558 1558 1558 1557 1557 1556 1556 1556 1555 1555
1575 1576 1576 1576 1576 1576 1576 1577 1577 1577 1577 1577 1577 1578 1578 1578 1578 1578 1578 1578 1578 1578 1578 1578 1578 1578 1578 1578 1578 1578 1578 1578 1578 1578 1577 1577 1577 1577 1577 1576 1576 1575 1575 1575 1575 1574 1574 1574 1574 1573 1573 1572 1572 1572 1572 1572 1572 1571 1571 1571 1571 1570 1570 1570 1570 1569 1569 1568 1568 1567 1567 1566 1565 1565 1565 1565 1564 1564 1564 1564 1563 1563 1562 1562 1562 1561 1561 1561 1560 1560 1560 1559 1559 1558 1558 1558 1557 1557 1556 1556 1556 1555 1555
1575 1575 1575 1576 1576 1576 1576 1576 1577 1577 1577 1577 1577 1577 1577 1577 1578 1578 1578 1578 1578 1578 1578 1578 1578 1578 1578 1578 1578 1578 1578 1578 1578 1578 1577 1577 1577 1577 1576 1576 1576 1575 1575 1575 1575 1574 1574 1573 1573 1573 1572 1572 1572 1572 1572 1572 1571 1571 1571 1571 1571 1570 1570 1570 1569 1569 1569 1568 1568 1567 1567 1567 1566 1565 1565 1564 1564 1564 1564 1564 1563 1563 1562 1562 1562 1561 1561 1561 1560 1560 1560 1559 1559 1558 1558 1558 1557 1557 1557 1556 1556 1555 1555
1575 1575 1575 1575 1575 1576 1576 1576 1576 1576 1577 1577 1577 1577 1577 1577 1577 1577 1577 1577 1578 1578 1578 1578 1578 1578 1578 1578 1578 1578 1578 1578 1578 1578 1577 1577 1577 1576 1576 1576 1575 1575 1575 1575 1574 1574 1574 1573 1573 1572 1572 1572 1572 1572 1572 1571 1571 1571 1571 1571 1570 1570 1570 1570 1569 1569 1569 1568 1568 1567 1567 1567 1566 1565 1565 1565 1564 1564 1564 1564 1563 1563 1562 1562 1562 1561 1561 1561 1560 1560 1560 1559 1559 1559 1558 1558 1557 1557 1557 1556 1556 1555 1555
1575 1575 1575 1575 1575 1575 1575 1576 1576 1576 1576 1576 1576 1577 1577 1577 1577 1577 1577 1577 1577 1577 1577 1577 1577 1577 1577 1578 1578 1578 1578 1578 1578 1577 1577 1577 1576 1576 1576 1575 1575 1575 1575 1574 1574 1574 1573 1573 1572 1572 1572 1572 1572 1571 1571 1571 1571 1571 1571 1570 1570 1570 1570 1570 1569 1569 1569 1568 1568 1567 1567 1567 1566 1565 1565 1565 1564 1564 1564 1564 1563 1563 1562 1562 1561 1561 1561 1560 1560 1560 1560 1559 1559 1559 1558 1558 1557 1557 1557 1556 1556 1556 1555
1574 1575 1575 1575 1575 1575 1575 1575 1575 1576 1576 1576 1576 1576 1576 1576 1576 1577 1577 1577 1577 1577 1577 1577 1577 1577 1577 1577 1577 1577 1577 1577 1577 1577 1576 1576 1576 1576 1575 1575 1575 1575 1574 1574 1574 1573 1573 1572 1572 1572 1572 1571 1571 1571 1571 1571 1570 1570 1570 1570 1570 1570 1570 1569 1569 1569 1568 1568 1568 1567 1567 1566 1566 1565 1565 1565 1564 1564 1564 1564 1563 1563 1562 1562 1561 1561 1561 1560 1560 1560 1560 1559 1559 1559 1558 1558 1558 1557 1557 1557 1556 1556 1555
1574 1574 1574 1575 1575 1575 1575 1575 1575 1575 1575 1575 1576 1576 1576 1576 1576 1576 1576 1576 1576 1577 1577 1577 1577 1577 1577 1577 1577 1577 1577 1577 1576 1576 1576 1576 1575 1575 1575 1575 1575 1574 1574 1574 1573 1573 1572 1572 1571 1571 1571 1571 1571 1571 1570 1570 1570 1570 1570 1570 1570 1569 1569 1569 1569 1569 1568 1568 1568 1567 1567 1566 1566 1565 1565 1564 1564 1564 1563 1563 1563 1563 1562 1562 1561 1561 1560 1560 1560 1560 1560 1559 1559 1559 1559 1558 1558 1558 1557 1557 1557 1556 1556
1574 1574 1574 1574 1575 1575 1575 1575 1575 1575 1575 1575 1575 1575 1576 1576 1576 1576 1576 1576 1576 1576 1576 1576 1576 1576 1576 1576 1576 1576 1576 1576 1576 1576 1576 1575 1575 1575 1575 1574 1574 1574 1573 1573 1573 1572 1572 1571 1571 1571 1570 1570 1570 1570 1570 1570 1570 1569 1569 1569 1569 1569 1569 1569 1569 1569 1568 1568 1567 1567 1567 1566 1566 1565 1565 1564 1564 1563 1563 1563 1563 1562 1562 1562 1561 1561 1560 1560 1560 1560 1560 1560 1559 1559 1559 1558 1558 1558 1557 1557 1557 1556 1556
1573 1574 1574 1574 1574 1574 1574 1574 1574 1574 1574 1575 1575 1575 1575 1575 1576 1576 1576 1576 1576 1576 1576 1576 1576 1576 1576 1576 1576 1576 1576 1576 1575 1575 1575 1575 1575 1574 1574 1574 1573 1573 1573 1572 1572 1572 1571 1571 1571 1570 1570 1570 1570 1570 1570 1569 1569 1569 1569 1569 1569 1568 1568 1568 1568 1568 1568 1568 1567 1567 1566 1566 1566 1565 1565 1564 1564 1563 1563 1562 1562 1562 1562 1562 1561 1561 1560 1560 1560 1560 1560 1560 1559 1559 1559 1559 1558 1558 1558 1557 1557 1557 1556
1573 1573 1573 1574 1574 1574 1574 1574 1574 1574 1574 1574 1575 1575 1575 1575 1575 1575 1575 1575 1575 1575 1575 1575 1575 1575 1575 1575 1575 1575 1575 1575 1575 1575 1575 1574 1574 1574 1573 1573 1573 1573 1572 1572 1572 1571 1571 1571 1570 1570 1570 1570 1570 1569 1569 1569 1569 1568 1568 1568 1568 1568 1568 1568 1568 1568 1568 1567 1567 1567 1566 1566 1565 1565 1565 1564 1564 1563 1562 1562 1562 1562 1561 1561 1561 1561 1560 1560 1560 1560 1560 1560 1559 1559 1559 1559 1558 1558 1558 1558 1557 1557 1557
1572 1573 1573 1573 1573 1573 1573 1573 1573 1573 1573 1574 1574 1574 1575 1575 1575 1575 1575 1575 1575 1575 1575 1575 1575 1575 1575 1575 1575 1575 1575 1575 1574 1574 1574 1574 1573 1573 1573 1573 1572 1572 1572 1572 1571 1571 1570 1570 1570 1570 1570 1569 1569 1569 1569 1569 1568 1568 1568 1568 1568 1568 1568 1567 1567 1567 1567 1567 1567 1566 1566 1566 1565 1565 1565 1564 1564 1563 1562 1562 1561 1561 1561 1561 1561 1561 1560 1560 1560 1560 1560 1560 1559 1559 1559 1559 1558 1558 1558 1558 1557 1557 1557
1572 1572 1572 1572 1573 1573 1573 1573 1573 1573 1573 1573 1574 1574 1574 1574 1574 1574 1574 1574 1574 1574 1575 1575 1575 1575 1575 1575 1575 1575 1574 1574 1574 1574 1574 1573 1573 1573 1573 1572 1572 1572 1572 1571 1571 1570 1570 1570 1570 1570 1569 1569 1569 1569 1568 1568 1568 1568 1568 1567 1567 1567 1567 1567 1567 1567 1567 1567 1566 1566 1566 1565 1565 1565 1564 1564 1563 1563 1562 1562 1561 1561 1561 1561 1560 1560 1560 1560 1560 1560 1560 1559 1559 1559 1559 1559 1558 1558 1558 1557 1557 1557 1557
1571 1571 1572 1572 1572 1572 1572 1572 1572 1572 1573 1573 1573 1573 1574 1574 1574 1574 1574 1574 1574 1574 1574 1574 1574 1574 1574 1574 1574 1574 1574 1574 1574 1574 1573 1573 1573 1572 1572 1572 1572 1571 1571 1571 1570 1570 1570 1570 1569 1569 1569 1569 1568 1568 1568 1568 1568 1567 1567 1567 1567 1567 1567 1566 1566 1566 1566 1566 1566 1566 1565 1565 1565 1564 1564 1564 1563 1562 1562 1562 1561 1561 1560 1560 1560 1560 1560 1559 1559 1559 1559 1559 1559 1559 1558 1558 1558 1558 1557 1557 1557 1557 1557
1571 1571 1571 1571 1571 1571 1571 1571 1571 1572 1572 1572 1573 1573 1573 1573 1573 1573 1573 1573 1574 1574 1574 1574 1574 1574 1574 1574 1574 1574 1574 1574 1574 1573 1573 1573 1572 1572 1572 1572 1571 1571 1571 1570 1570 1570 1569 1569 1569 1569 1568 1568 1568 1568 1568 1567 1567 1567 1567 1566 1566 1566 1566 1566 1566 1565 1565 1565 1565 1565 1565 1565 1564 1564 1563 1563 1563 1562 1562 1561 1561 1560 1560 1560 1560 1559 1559 1559 1559 1559 1558 1558 1558 1558 1558 1558 1557 1557 1557 1557 1557 1556 1556
1570 1570 1570 1570 1570 1570 1570 1571 1571 1571 1571 1572 1572 1572 1572 1572 1573 1573 1573 1573 1573 1573 1573 1573 1573 1573 1574 1574 1574 1573 1573 1573 1573 1573 1573 1572 1572 1572 1571 1571 1571 1570 1570 1570 1570 1569 1569 1569 1568 1568 1568 1568 1567 1567 1567 1567 1566 1566 1566 1566 1565 1565 1565 1565 1565 1565 1565 1565 1565 1565 1565 1564 1564 1563 1563 1562 1562 1562 1561 1561 1561 1560 1560 1560 1560 1559 1559 1558 1558 1558 1558 1557 1557 1557 1557 1557 1557 1556 1556 1556 1556 1556 1556
1569 1570 1570 1570 1570 1570 1570 1570 1570 1570 1571 1571 1571 1572 1572 1572 1572 1572 1572 1573 1573 1573 1573 1573 1573 1573 1573 1573 1573 1573 1573 1573 1572 1572 1572 1572 1572 1571 1571 1571 1570 1570 1570 1570 1569 1569 1569 1568 1568 1568 1567 1567 1567 1567 1566 1566 1566 1565 1565 1565 1565 1565 1565 1565 1565 1564 1564 1564 1564 1564 1564 1564 1563 1563 1562 1562 1561 1561 1561 1560 1560 1560 1560 1560 1560 1559 1559 1559 1558 1558 1558 1557 1557 1556 1556 1556 1556 1556 1556 1555 1555 1555 1555
1569 1569 1569 1569 1569 1570 1570 1570 1570 1570 1570 1571 1571 1571 1571 1572 1572 1572 1572 1572 1572 1573 1572 1572 1572 1572 1572 1572 1572 1572 1572 1572 1572 1571 1571 1571 1571 1571 1571 1570 1570 1570 1570 1569 1569 1568 1568 1568 1567 1567 1567 1567 1566 1566 1566 1566 1565 1565 1565 1565 1564 1564 1564 1564 1564 1564 1564 1564 1564 1563 1563 1563 1563 1562 1562 1562 1561 1561 1560 1560 1560 1560 1560 1559 1559 1559 1559 1559 1559 1558 1558 1557 1557 1556 1556 1556 1556 1556 1555 1555 1555 1555 1555
1568 1568 1568 1569 1569 1569 1569 1570 1570 1570 1570 1571 1571 1571 1571 1571 1571 1572 1572 1572 1572 1572 1572 1572 1572 1572 1572 1572 1571 1571 1571 1571 1571 1571 1571 1571 1570 1570 1570 1570 1570 1570 1569 1569 1568 1568 1567 1567 1567 1566 1566 1566 1566 1566 1565 1565 1565 1565 1564 1564 1564 1563 1563 1563 1563 1563 1563 1563 1563 1563 1562 1562 1562 1562 1561 1561 1561 1560 1560 1560 1559 1559 1559 1559 1559 1558 1558 1558 1558 1558 1558 1557 1557 1557 1556 1556 1556 1555 1555 1555 1554 1554 1554
1567 1568 1568 1568 1568 1569 1569 1570 1570 1570 1570 1570 1570 1571 1571 1571 1571 1571 1571 1572 1572 1572 1571 1571 1571 1571 1571 1571 1571 1571 1570 1570 1570 1570 1570 1570 1570 1570 1570 1569 1569 1569 1569 1568 1568 1567 1567 1567 1566 1566 1566 1565 1565 1565 1565 1565 1564 1564 1564 1563 1563 1563 1563 1562 1562 1562 1562 1562 1562 1562 1562 1562 1561 1561 1561 1560 1560 1560 1560 1560 1559 1559 1559 1559 1558 1558 1558 1557 1557 1557 1557 1557 1557 1557 1557 1556 1556 1555 1555 1555 1554 1554 1554
1567 1567 1567 1568 1568 1568 1569 1569 1569 1570 1570 1570 1570 1570 1570 1570 1570 1571 1571 1571 1571 1571 1571 1571 1570 1570 1570 1570 1570 1570 1570 1570 1570 1570 1569 1569 1569 1569 1569 1569 1568 1568 1568 1567 1567 1567 1566 1566 1566 1565 1565 1565 1565 1565 1564 1564 1564 1563 1563 1563 1562 1562 1562 1562 1561 1561 1561 1561 1561 1561 1561 1561 1561 1560 1560 1560 1559 1559 1559 1559 1559 1559 1558 1558 1557 1557 1557 1556 1556 1557 1556 1556 1556 1556 1556 1556 1556 1555 1555 1555 1554 1554 1554
1566 1567 1567 1567 1568 1568 1568 1568 1569 1569 1570 1570 1570 1570 1570 1570 1570 1570 1570 1570 1570 1570 1570 1570 1570 1570 1570 1570 1570 1570 1570 1569 1569 1569 1569 1569 1568 1568 1568 1568 1568 1567 1567 1566 1566 1566 1566 1565 1565 1565 1565 1564 1564 1564 1564 1563 1563 1563 1562 1562 1561 1561 1561 1561 1561 1561 1560 1561 1561 1561 1560 1560 1560 1560 1560 1559 1559 1558 1558 1558 1558 1558 1557 1557 1556 1555 1555 1556 1556 1556 1556 1555 1555 1555 1555 1555 1555 1555 1555 1555 1554 1554 1554
1565 1566 1566 1567 1567 1567 1568 1568 1568 1568 1569 1569 1569 1569 1569 1569 1570 1570 1570 1570 1570 1570 1570 1570 1569 1569 1569 1569 1569 1569 1569 1569 1568 1568 1568 1568 1568 1567 1567 1567 1567 1566 1566 1566 1565 1565 1565 1565 1564 1564 1564 1564 1564 1563 1563 1563 1562 1562 1562 1561 1561 1560 1560 1560 1560 1560 1560 1560 1560 1560 1560 1560 1560 1560 1559 1559 1558 1558 1557 1557 1557 1557 1556 1556 1555 1555 1555 1555 1555 1555 1555 1555 1555 1555 1555 1555 1554 1554 1555 1555 1555 1554 1554
1565 1565 1566 1566 1566 1567 1567 1567 1568 1568 1568 1568 1568 1569 1569 1569 1569 1569 1569 1570 1570 1569 1569 1569 1569 1569 1568 1568 1568 1568 1568 1568 1568 1567 1567 1567 1567 1567 1567 1566 1566 1565 1565 1565 1565 1565 1564 1564 1564 1564 1563 1563 1563 1563 1562 1562 1562 1561 1561 1560 1560 1560 1560 1559 1559 1559 1559 1559 1559 1559 1559 1559 1559 1559 1559 1558 1558 1557 1557 1557 1556 1556 1556 1555 1555 1555 1555 1555 1555 1555 1554 1554 1554 1554 1554 1554 1554 1554 1554 1554 1554 1554 1554
1565 1565 1565 1565 1566 1566 1567 1567 1567 1567 1567 1568 1568 1568 1568 1568 1569 1569 1569 1569 1569 1569 1569 1568 1568 1568 1568 1568 1568 1567 1567 1567 1567 1566 1566 1566 1566 1566 1566 1565 1565 1565 1565 1564 1564 1564 1563 1563 1563 1563 1563 1562 1562 1562 1562 1561 1561 1561 1560 1560 1559 1559 1559 1558 1558 1558 1558 1558 1558 1558 1558 1558 1558 1558 1558 1557 1557 1557 1556 1556 1556 1556 1555 1555 1555 1555 1555 1555 1555 1554 1554 1554 1553 1553 1553 1553 1554 1554 1554 1554 1554 1554 1553
1564 1564 1565 1565 1565 1566 1566 1566 1566 1567 1567 1567 1567 1567 1568 1568 1568 1568 1568 1568 1568 1568 1568 1568 1568 1567 1567 1567 1567 1566 1566 1566 1566 1566 1565 1565 1565 1565 1565 1565 1565 1564 1564 1563 1563 1563 1562 1562 1562 1562 1562 1561 1561 1561 1561 1561 1560 1560 1560 1559 1559 1558 1558 1558 1557 1557 1557 1557 1558 1558 1557 1557 1557 1557 1557 1557 1556 1556 1556 1555 1555 1555 1555 1555 1555 1554 1554 1554 1554 1554 1554 1553 1553 1553 1553 1553 1553 1553 1553 1553 1553 1553 1553
1563 1564 1564 1564 1565 1565 1565 1565 1566 1566 1566 1566 1567 1567 1567 1567 1567 1568 1568 1568 1567 1567 1567 1567 1567 1567 1566 1566 1566 1566 1565 1565 1565 1565 1565 1564 1564 1564 1564 1564 1564 1563 1563 1562 1562 1562 1561 1561 1561 1561 1561 1560 1560 1560 1560 1560 1560 1559 1559 1558 1558 1557 1557 1557 1557 1556 1556 1557 1557 1557 1557 1556 1556 1556 1556 1556 1555 1555 1555 1555 1554 1554 1554 1554 1554 1554 1554 1553 1553 1553 1553 1553 1553 1553 1553 1552 1552 1552 1552 1552 1552 1553 1553
1562 1563 1563 1564 1564 1565 1565 1565 1565 1565 1565 1566 1566 1566 1567 1567 1567 1567 1567 1567 1567 1567 1566 1566 1566 1566 1565 1565 1565 1565 1565 1565 1564 1564 1564 1563 1563 1563 1563 1563 1563 1563 1562 1562 1561 1561 1561 1560 1560 1560 1560 1560 1560 1559 1559 1559 1559 1558 1558 1557 1557 1557 1556 1556 1556 1556 1556 1556 1556 1556 1556 1555 1555 1555 1555 1555 1555 1555 1554 1554 1553 1553 1553 1553 1553 1553 1553 1553 1553 1553 1553 1553 1552 1552 1552 1552 1552 1552 1551 1551 1551 1552 1552
1562 1562 1562 1563 1563 1564 1564 1565 1565 1565 1565 1565 1565 1566 1566 1566 1566 1566 1566 1566 1566 1566 1565 1565 1565 1565 1565 1565 1564 1564 1564 1564 1564 1564 1563 1563 1562 1562 1562 1562 1562 1562 1561 1561 1560 1560 1560 1560 1559 1559 1559 1559 1559 1558 1558 1558 1558 1557 1557 1557 1556 1556 1556 1555 1555 1555 1555 1555 1555 1555 1555 1555 1554 1554 1554 1554 1554 1554 1553 1553 1552 1552 1552 1552 1552 1552 1552 1552 1552 1552 1552 1552 1552 1552 1552 1552 1552 1552 1551 1551 1550 1551 1551
1561 1561 1562 1562 1563 1563 1564 1564 1564 1564 1565 1565 1565 1565 1565 1565 1565 1565 1565 1565 1565 1565 1565 1565 1565 1564 1564 1564 1564 1563 1563 1563 1563 1563 1562 1562 1562 1562 1561 1561 1561 1561 1560 1560 1560 1559 1559 1559 1559 1558 1558 1558 1557 1557 1557 1557 1557 1557 1556 1556 1556 1555 1555 1555 1555 1555 1554 1554 1554 1554 1554 1554 1554 1553 1553 1553 1553 1552 1552 1552 1551 1551 1552 1552 1552 1552 1552 1552 1551 1551 1551 1551 1551 1551 1551 1551 1551 1551 1551 1550 1550 1550 1550
1560 1560 1561 1562 1562 1563 1563 1563 1563 1564 1564 1564 1564 1565 1565 1565 1565 1565 1565 1565 1564 1564 1564 1564 1564 1563 1563 1563 1563 1563 1562 1562 1562 1562 1562 1561 1561 1560 1560 1560 1560 1560 1559 1559 1559 1558 1558 1558 1557 1557 1557 1557 1556 1556 1556 1556 1556 1555 1555 1555 1555 1555 1554 1554 1554 1554 1554 1554 1553 1553 1553 1553 1553 1553 1552 1552 1552 1551 1551 1551 1551 1551 1551 1551 1551 1551 1551 1551 1551 1551 1550 1550 1550 1550 1550 1550 1550 1550 1550 1550 1550 1549 1549
1560 1560 1560 1561 1561 1562 1562 1562 1563 1563 1563 1564 1564 1564 1564 1564 1564 1564 1564 1564 1564 1563 1563 1563 1563 1563 1562 1562 1562 1562 1562 1562 1562 1561 1561 1560 1560 1560 1560 1559 1559 1559 1558 1558 1558 1557 1557 1556 1556 1556 1556 1556 1555 1555 1555 1555 1555 1555 1555 1555 1554 1554 1554 1553 1553 1553 1553 1553 1553 1553 1552 1552 1552 1552 1552 1551 1551 1551 1550 1550 1550 1550 1551 1551 1551 1551 1551 1550 1550 1550 1550 1550 1550 1550 1549 1549 1549 1549 1549 1549 1549 1549 1548
1559 1559 1560 1560 1560 1561 1561 1562 1562 1562 1563 1563 1563 1563 1563 1563 1563 1563 1563 1563 1563 1563 1562 1562 1562 1562 1561 1561 1561 1561 1561 1561 1561 1561 1560 1560 1559 1559 1559 1558 1558 1558 1557 1557 1557 1556 1556 1555 1555 1555 1555 1555 1555 1555 1554 1554 1554 1554 1554 1554 1553 1553 1553 1552 1552 1552 1552 1552 1552 1552 1552 1551 1551 1551 1551 1551 1550 1550 1550 1550 1550 1550 1550 1550 1550 1550 1550 1550 1550 1549 1549 1549 1549 1549 1548 1548 1548 1548 1548 1548 1548 1548 1548
1558 1559 1559 1560 1560 1560 1560 1561 1561 1561 1562 1562 1562 1562 1562 1562 1562 1562 1562 1562 1562 1562 1562 1561 1561 1561 1560 1560 1560 1560 1560 1560 1560 1560 1560 1559 1559 1558 1558 1557 1557 1556 1556 1556 1556 1555 1555 1554 1554 1554 1554 1554 1554 1553 1553 1553 1553 1553 1553 1553 1552 1552 1552 1551 1551 1551 1551 1551 1551 1551 1551 1551 1551 1550 1550 1550 1550 1550 1550 1549 1549 1550 1550 1550 1550 1550 1549 1549 1549 1549 1548 1548 1548 1548 1547 1547 1547 1547 1547 1547 1547 1547 1547
1558 1558 1559 1559 1559 1559 1560 1560 1560 1560 1561 1561 1561 1561 1561 1561 1561 1561 1561 1561 1561 1561 1561 1560 1560 1560 1559 1559 1559 1559 1559 1559 1559 1559 1558 1558 1557 1557 1557 1557 1556 1555 1555 1555 1555 1554 1554 1553 1553 1553 1553 1552 1552 1552 1552 1552 1552 1552 1552 1552 1552 1551 1551 1551 1550 1550 1550 1550 1550 1550 1550 1550 1550 1550 1550 1550 1549 1549 1549 1549 1549 1549 1549 1549 1549 1549 1549 1548 1548 1548 1547 1547 1547 1547 1547 1546 1546 1546 1546 1546 1546 1546 1546
1557 1557 1558 1558 1558 1559 1559 1559 1560 1560 1560 1560 1560 1560 1560 1560 1560 1560 1560 1560 1560 1560 1560 1560 1559 1559 1558 1558 1557 1557 1557 1558 1557 1557 1557 1557 1556 1556 1556 1556 1555 1555 1555 1554 1553 1553 1553 1552 1552 1551 1551 1551 1551 1551 1551 1551 1551 1551 1551 1551 1550 1550 1550 1550 1550 1550 1549 1549 1549 1549 1549 1549 1549 1549 1549 1549 1549 1548 1548 1548 1548 1548 1548 1548 1548 1548 1548 1547 1547 1547 1547 1546 1546 1546 1546 1545 1545 1545 1545 1545 1545 1545 1545
1556 1556 1557 1557 1557 1558 1558 1558 1559 1559 1559 1559 1559 1559 1559 1559 1559 1559 1559 1559 1559 1559 1559 1559 1558 1558 1557 1557 1556 1556 1556 1556 1556 1556 1556 1556 1555 1555 1555 1555 1555 1555 1554 1554 1553 1552 1551 1551 1551 1550 1550 1550 1550 1550 1550 1550 1550 1550 1550 1550 1550 1549 1549 1549 1549 1549 1548 1548 1548 1548 1548 1548 1548 1548 1548 1548 1548 1548 1547 1547 1547 1547 1547 1547 1547 1547 1547 1546 1546 1546 1546 1545 1545 1545 1545 1545 1545 1545 1544 1544 1544 1544 1544
1555 1555 1556 1556 1556 1557 1557 1557 1558 1558 1558 1558 1558 1558 1558 1558 1558 1558 1558 1558 1558 1558 1558 1558 1557 1557 1556 1555 1555 1555 1555 1555 1555 1555 1555 1554 1554 1554 1554 1554 1554 1553 1553 1553 1552 1551 1550 1550 1550 1550 1549 1549 1549 1549 1549 1549 1549 1549 1549 1549 1549 1548 1548 1548 1548 1548 1548 1548 1547 1547 1547 1547 1547 1547 1547 1547 1547 1547 1547 1547 1547 1547 1547 1546 1546 1546 1546 1546 1545 1545 1545 1545 1544 1544 1544 1544 1544 1544 1543 1543 1543 1543 1543
1554 1555 1555 1555 1555 1556 1556 1556 1557 1557 1557 1557 1557 1557 1557 1557 1557 1557 1557 1557 1556 1556 1556 1556 1555 1555 1555 1555 1554 1553 1553 1554 1554 1553 1553 1553 1553 1553 1553 1553 1553 1553 1552 1551 1551 1550 1550 1549 1549 1549 1548 1548 1548 1548 1548 1548 1548 1548 1548 1548 1548 1547 1547 1547 1547 1547 1547 1547 1546 1546 1546 1546 1546 1546 1546 1546 1546 1546 1546 1546 1546 1546 1546 1546 1545 1545 1545 1545 1545 1544 1544 1544 1544 1544 1543 1543 1543 1543 1543 1542 1542 1542 1542
1554 1554 1554 1554 1555 1555 1555 1555 1555 1555 1555 1556 1555 1555 1555 1555 1555 1555 1555 1555 1555 1555 1555 1554 1554 1554 1554 1553 1553 1552 1552 1552 1552 1552 1552 1552 1552 1551 1551 1551 1551 1551 1551 1550 1550 1550 1549 1549 1548 1548 1547 1547 1547 1547 1547 1548 1548 1547 1547 1547 1547 1546 1546 1546 1546 1546 1546 1546 1546 1545 1545 1545 1545 1545 1545 1545 1545 1545 1545 1545 1545 1545 1545 1545 1545 1545 1544 1544 1544 1543 1543 1543 1543 1543 1543 1542 1542 1542 1542 1541 1541 1541 1541
1553 1553 1553 1553 1553 1554 1554 1554 1554 1554 1554 1554 1554 1554 1554 1554 1554 1554 1554 1554 1554 1553 1553 1553 1553 1553 1552 1552 1552 1551 1550 1550 1550 1551 1551 1550 1550 1550 1550 1549 1549 1549 1549 1548 1549 1549 1548 1548 1547 1547 1547 1547 1546 1546 1547 1547 1547 1546 1546 1546 1545 1545 1545 1545 1545 1545 1545 1545 1545 1545 1545 1544 1544 1544 1544 1545 1545 1545 1545 1545 1545 1545 1545 1544 1544 1544 1544 1543 1543 1543 1543 1542 1542 1542 1542 1541 1541 1541 1541 1540 1540 1540 1540
1552 1552 1552 1552 1552 1552 1553 1553 1553 1553 1553 1553 1553 1553 1553 1553 1553 1552 1552 1552 1552 1552 1552 1552 1551 1551 1551 1551 1550 1550 1549 1549 1549 1549 1549 1549 1549 1548 1548 1548 1548 1547 1547 1547 1547 1547 1547 1547 1546 1546 1547 1546 1546 1545 1546 1546 1546 1545 1545 1545 1545 1544 1544 1544 1543 1543 1544 1544 1544 1544 1544 1543 1543 1543 1543 1544 1544 1544 1544 1544 1544 1544 1544 1544 1543 1543 1543 1543 1542 1542 1542 1542 1541 1541 1541 1541 1540 1540 1540 1540 1540 1539 1539
1550 1551 1551 1551 1551 1551 1551 1552 1552 1552 1552 1552 1552 1552 1551 1551 1551 1551 1551 1551 1551 1551 1550 1550 1550 1550 1550 1549 1549 1548 1547 1547 1547 1548 1548 1547 1547 1546 1547 1546 1546 1546 1546 1546 1545 1545 1545 1545 1545 1545 1545 1546 1545 1545 1545 1545 1545 1545 1544 1543 1543 1543 1543 1542 1542 1542 1542 1543 1543 1543 1543 1543 1542 1542 1543 1543 1543 1543 1543 1543 1543 1543 1543 1543 1543 1542 1542 1542 1541 1541 1541 1541 1540 1540 1540 1540 1540 1539 1539 1539 1538 1538 1538
1550 1550 1550 1550 1550 1550 1550 1550 1551 1551 1550 1550 1550 1550 1550 1550 1550 1550 1550 1550 1550 1549 1549 1549 1549 1548 1548 1547 1547 1546 1546 1545 1545 1545 1546 1545 1545 1545 1545 1545 1545 1545 1545 1544 1544 1544 1544 1544 1544 1544 1544 1544 1545 1545 1544 1544 1544 1543 1543 1542 1542 1542 1541 1541 1540 1540 1541 1541 1541 1541 1542 1541 1541 1541 1542 1542 1542 1542 1542 1542 1542 1542 1542 1542 1542 1541 1541 1541 1541 1540 1540 1540 1540 1540 1539 1539 1538 1538 1538 1537 1537 1537 1536